{"data":{"norad_id":68234,"epoch":"2026-09-20T01:42:09.673056Z","epoch_age_seconds":89251,"freshness":"FRESH","line1":"1 68234U 26054C   26263.07094529  .00017314  00000+0  52229-3 0  9993","line2":"2 68234  53.1585 103.9835 0001781  76.1725 283.9475 15.34406417 28896","mean_motion":15.34406417,"eccentricity":0.0001781,"inclination_deg":53.1585,"raan_deg":103.9835,"arg_perigee_deg":76.1725,"mean_anomaly_deg":283.9475,"bstar":0.00052229,"rev_number":2889,"period_min":93.847365603138,"perigee_km":461.46581734731,"apogee_km":463.9025178472,"semimajor_km":6840.8211675973,"source":"CELESTRAK","updated_at":"2026-09-20T09:00:43.839380Z"}}